Temperature
11 12 12 12 12 12 13 13 13 13 13 13 14 14 14 14 14 14 14 14 14 14 14 14 14 14 14 14 14 14 15 15 15 14 14 15 15 15 15 15 15 14 15
11 11 12 12 12 12 12 13 13 13 13 13 13 13 13 14 14 14 14 14 14 14 14 14 14 14 14 14 14 14 14 14 14 14 14 14 14 14 14 14 14 14 14
11 11 11 12 12 12 12 12 12 13 13 13 13 13 13 13 13 13 13 14 14 14 14 14 14 14 14 14 14 14 14 14 14 14 13 13 13 14 14 14 14 14 13
11 11 11 11 11 12 12 12 12 12 13 13 13 13 13 13 13 13 13 13 13 13 13 13 13 13 14 14 14 14 14 14 13 13 13 13 13 13 13 13 13 13 13
11 11 11 11 11 11 12 12 12 12 12 12 12 13 13 13 13 13 13 13 13 13 13 13 13 13 14 14 13 13 13 13 13 13 13 13 13 13 13 13 13 13 13
11 11 11 11 11 11 11 12 12 12 12 12 12 12 12 12 12 13 13 13 13 13 13 13 13 13 13 13 13 13 13 13 13 13 13 13 13 13 13 13 12 12 12
11 11 11 11 11 11 11 11 11 12 12 12 12 12 12 13 13 13 13 13 13 13 13 13 13 13 13 13 13 13 13 13 13 13 13 13 13 13 13 12 12 12 12
11 11 11 11 11 11 11 11 11 11 11 11 12 12 12 12 13 13 13 13 13 13 13 13 13 13 13 13 13 13 13 13 13 13 13 13 12 12 12 12 12 12 12
11 11 11 11 11 11 11 11 11 11 11 11 11 12 12 12 12 13 13 13 13 13 13 13 13 13 13 13 13 13 13 13 13 13 13 13 13 13 12 12 12 12 11
11 11 11 11 11 11 11 11 11 11 11 11 11 11 12 12 12 13 13 13 13 13 13 13 13 13 13 13 13 13 12 12 12 12 12 12 12 12 12 12 12 11 11
11 11 11 11 11 11 11 11 10 10 10 11 11 11 11 12 12 12 12 12 13 13 12 12 13 13 13 13 13 13 13 12 12 12 12 12 11 11 11 11 11 11 11
11 11 11 11 11 10 11 10 10 10 10 10 11 11 11 11 12 12 12 12 12 12 12 12 12 12 13 13 13 13 13 12 12 11 11 11 11 11 11 11 11 11 10
11 11 11 10 11 11 10 10 10 10 10 10 10 10 10 11 11 11 11 12 12 12 12 12 12 12 12 12 12 12 12 12 11 11 11 11 11 10 10 10 10 10 10
11 11 11 10 10 10 10 10 10 10 10 10 10 10 10 11 11 11 11 11 11 12 12 11 12 12 12 12 12 12 11 11 11 11 10 10 10 10 10 9 9 9 9
11 11 11 11 10 10 10 10 10 10 10 10 10 10 10 10 10 11 11 11 11 11 11 11 11 11 11 11 11 11 11 10 10 10 10 10 9 9 9 9 9 9 9
11 11 11 11 10 10 10 10 10 10 10 10 10 10 10 10 10 10 11 11 11 11 11 11 11 11 10 10 10 10 10 10 10 10 9 9 9 9 9 8 8 8 8
11 11 11 11 10 10 10 10 10 10 10 10 10 10 10 10 10 10 10 10 10 10 10 10 10 10 10 10 10 10 10 10 10 9 9 9 9 8 8 8 8 8 8
12 11 11 11 11 10 10 10 10 10 10 9 10 10 10 10 10 10 10 10 10 10 10 10 10 10 10 9 9 9 9 9 9 9 9 8 8 8 8 8 8 7 7
12 11 11 11 11 10 10 10 10 10 10 10 9 10 10 10 10 10 10 10 10 10 10 10 10 10 9 9 9 9 9 9 9 8 8 8 8 8 8 8 7 7 7
12 12 11 11 11 11 11 10 10 10 10 10 10 10 10 9 9 10 10 10 10 10 9 9 10 9 9 9 9 9 9 9 9 8 8 8 8 8 7 7 7 7 7
12 12 12 11 11 11 11 11 10 10 10 10 10 10 10 10 10 10 10 10 9 9 9 9 9 9 9 9 9 9 9 8 8 8 8 7 7 7 7 7 7 7 6
12 12 12 11 11 11 11 11 11 10 10 10 10 10 10 10 10 10 9 10 10 10 10 10 9 9 10 9 9 9 8 8 8 8 7 7 7 7 7 7 7 6 6
12 12 12 12 12 11 11 11 11 11 10 10 10 10 10 10 10 10 10 10 10 10 10 10 10 10 10 10 10 9 8 8 8 8 7 7 7 7 7 7 6 6 6
12 12 12 12 12 12 11 11 11 11 11 11 10 10 10 10 10 10 10 10 10 10 10 10 10 10 10 10 10 10 10 9 9 9 8 7 7 7 7 7 6 6 6
12 12 12 12 12 12 12 11 11 11 11 11 11 11 10 10 10 10 10 10 10 10 10 10 10 10 10 10 10 10 10 10 9 9 9 8 7 7 7 7 6 6 6
12 12 12 12 12 12 12 12 12 11 11 11 11 11 11 11 10 10 10 10 10 10 10 10 10 10 10 10 10 10 10 10 9 9 9 8 7 7 7 7 7 7 6
Wind_Speed
14 13 12 11 10 10 9 9 7 6 5 4 3 1 0 1 3 5 6 7 8 8 8 9 9 8 6 6 5 5 4 4 4 2 2 2 2 2 2 1 1 2 3
13 12 12 12 11 11 10 10 8 7 6 6 5 4 3 2 1 2 4 6 7 8 8 8 8 7 8 6 5 5 5 4 4 4 3 2 2 2 2 2 1 1 2
13 12 12 12 12 12 11 11 10 9 8 8 7 7 6 5 4 3 2 4 4 5 6 6 7 8 8 6 7 6 5 4 4 4 4 2 2 2 2 2 2 2 3
12 12 13 13 12 11 11 11 10 9 9 8 8 7 7 6 5 5 3 4 4 4 4 5 6 7 7 8 7 7 6 6 5 5 4 3 3 2 2 2 3 3 3
12 12 12 12 11 11 11 11 11 10 10 9 8 8 7 6 6 6 5 4 5 5 5 5 5 6 6 5 5 6 7 6 6 5 5 4 4 3 3 2 3 4 4
11 12 11 11 11 11 11 11 11 11 10 9 9 9 8 7 9 9 6 5 4 5 6 6 7 8 9 9 8 7 5 6 6 5 4 5 4 4 3 3 3 4 3
11 11 11 11 11 11 11 11 11 10 10 10 10 9 9 9 11 10 8 5 5 6 6 6 6 7 8 9 10 10 9 7 4 4 5 5 4 4 4 4 3 3 3
11 11 11 11 11 11 11 11 11 10 10 9 10 10 9 11 12 10 8 7 7 7 7 6 7 8 7 7 9 9 8 8 6 5 6 6 5 4 3 3 4 5 5
10 11 11 11 10 11 11 10 10 10 10 9 9 10 10 10 12 10 7 6 8 9 8 8 7 9 7 4 8 10 10 9 12 15 14 12 12 10 4 4 4 4 4
9 9 9 9 10 10 10 9 9 8 9 9 10 10 11 11 13 12 7 6 7 8 8 9 11 10 7 3 7 9 10 9 9 10 10 9 9 8 5 3 2 2 3
7 8 8 9 9 9 9 9 8 8 8 9 10 10 11 11 12 13 11 6 6 7 7 7 8 10 10 8 6 8 8 8 8 8 7 7 7 7 7 7 6 4 3
6 6 7 8 8 8 9 9 9 9 9 9 9 9 9 10 11 12 13 11 8 8 7 7 8 11 12 10 9 10 7 5 7 6 6 6 6 6 6 7 9 9 9
5 6 6 7 7 8 8 9 8 8 8 8 8 8 8 8 8 12 13 13 11 8 8 11 10 10 10 11 11 8 5 5 6 6 6 6 5 6 6 6 8 9 11
4 5 5 6 7 7 7 7 8 8 8 7 7 7 7 7 7 6 6 7 8 9 9 10 11 11 9 9 7 6 6 5 5 6 6 6 5 5 5 4 4 5 6
3 4 4 4 5 6 6 6 7 8 7 7 6 6 6 6 7 9 6 5 5 5 6 6 6 6 7 6 6 6 6 5 6 5 5 5 5 5 4 3 3 4 5
2 2 3 3 3 3 4 5 7 6 8 9 9 8 7 7 7 8 9 9 8 4 4 6 6 6 6 6 6 6 6 5 5 4 4 4 4 4 4 4 4 4 5
1 1 1 1 2 2 3 3 3 4 6 8 9 10 9 7 7 7 8 8 6 3 5 6 6 6 5 5 5 5 5 5 4 4 4 4 4 4 4 4 4 4 4
1 1 1 0 1 1 2 2 3 3 3 4 6 8 8 8 7 6 2 2 5 5 5 5 5 5 5 5 4 4 4 4 3 4 4 4 3 3 4 4 3 4 4
2 2 1 1 1 0 0 1 1 2 2 3 3 4 5 4 5 5 3 3 5 4 4 4 4 4 4 4 3 3 3 3 3 3 3 3 3 3 3 3 4 3 2
2 1 3 2 2 2 1 1 1 1 1 1 2 2 2 1 2 3 3 4 3 4 3 3 3 3 3 3 3 3 3 3 3 3 3 3 3 3 3 3 3 3 3
3 4 5 4 3 2 2 2 1 1 1 0 1 2 3 1 2 2 2 2 2 2 3 2 3 3 2 2 2 2 3 3 3 3 3 3 3 3 3 3 3 3 3
4 4 4 4 4 4 3 3 3 3 2 2 1 2 3 2 0 1 1 2 2 2 2 2 2 2 2 2 2 2 2 3 3 3 3 3 3 3 3 3 3 3 3
5 5 5 5 5 4 5 5 4 4 4 4 3 3 3 3 2 2 2 2 2 2 3 3 3 3 3 3 2 2 2 3 3 3 3 3 3 3 3 3 3 3 3
5 6 6 5 5 5 6 6 6 5 5 5 5 5 4 4 4 4 4 3 4 4 4 4 4 4 5 4 4 4 3 2 3 4 4 3 3 3 4 4 4 4 4
6 6 6 6 6 6 6 6 7 7 6 6 6 5 5 6 6 6 5 5 6 5 6 6 6 6 6 7 6 5 4 3 3 3 5 4 4 4 4 5 4 4 4
6 6 6 6 6 6 7 7 7 7 7 7 7 7 6 6 7 7 7 7 7 7 7 8 8 8 8 8 8 7 7 7 6 6 5 5 5 5 6 5 5 5 5
Wind_Direction
359 359 1 3 4 5 6 5 4 2 3 359 348 338 67 196 204 209 207 204 203 203 199 199 199 193 190 194 195 194 195 191 187 159 145 151 176 166 137 180 215 198 137
360 2 5 7 9 10 10 10 14 20 22 21 26 43 47 48 61 194 193 194 196 195 191 186 188 183 181 179 178 180 176 174 173 167 158 165 169 140 134 137 148 132 114
4 7 10 12 12 11 12 14 18 26 32 35 35 40 44 43 39 47 118 160 171 171 171 173 173 174 173 169 172 172 166 165 165 161 155 147 144 144 146 138 131 113 104
8 10 11 12 11 12 14 18 23 27 32 30 33 36 39 44 43 45 69 106 124 135 149 158 167 174 175 172 172 170 163 159 158 156 144 141 138 145 160 154 138 122 107
11 13 12 10 13 17 20 21 26 27 30 31 35 40 40 40 39 41 56 78 95 108 116 127 139 143 145 155 163 162 158 157 158 153 148 144 142 151 152 155 144 125 99
15 15 11 12 16 19 22 26 30 29 29 30 33 38 42 41 37 38 46 75 90 99 102 107 117 124 121 111 100 102 117 143 144 143 146 143 138 136 136 161 154 153 125
18 20 16 16 20 20 21 27 30 31 32 35 34 35 40 39 40 45 49 73 82 88 97 103 106 109 119 118 115 114 97 84 89 128 131 130 133 139 152 154 145 126 104
19 22 21 20 22 22 23 24 27 32 34 35 36 36 41 40 40 46 51 74 81 83 88 96 104 109 104 111 115 108 98 85 82 100 107 102 103 117 127 126 121 115 109
20 20 21 21 22 23 25 24 25 31 36 40 42 41 44 43 38 39 46 80 82 81 78 75 89 101 87 98 119 115 107 95 76 77 78 85 75 60 55 124 139 147 128
19 19 21 22 24 25 25 24 27 33 39 47 49 45 45 45 37 32 34 81 86 85 83 78 70 82 82 69 126 123 119 117 117 111 105 110 100 86 43 79 104 128 125
17 23 26 26 29 28 27 28 30 36 41 49 53 49 47 43 44 39 34 67 81 84 82 80 77 77 72 56 74 102 102 111 112 107 99 93 87 79 67 61 54 51 79
25 30 31 30 29 29 33 32 34 35 40 44 48 50 48 48 45 48 49 52 58 82 80 82 84 80 72 63 77 87 91 106 110 108 101 91 85 79 73 72 72 69 67
33 37 35 34 35 32 31 34 36 37 37 39 42 45 46 48 55 59 61 59 55 74 78 78 85 90 93 85 83 87 104 106 109 108 101 93 88 88 88 87 87 84 77
35 38 40 36 38 39 34 34 36 32 32 37 40 41 45 47 43 49 70 82 86 89 94 94 88 80 87 95 104 95 84 81 93 98 102 105 105 101 96 98 104 106 94
34 42 47 45 40 40 47 40 37 44 31 23 31 37 40 46 31 23 41 67 74 86 105 105 99 99 94 94 92 90 92 96 94 100 106 110 112 109 101 94 95 106 104
24 37 42 46 43 40 48 74 71 57 54 45 34 29 58 54 47 52 59 64 62 54 96 96 91 89 90 94 97 95 89 89 92 99 104 106 110 110 108 104 104 106 106
342 31 42 34 37 35 35 37 63 102 103 74 54 46 50 54 59 62 69 76 61 52 91 91 90 90 90 90 92 95 94 92 92 99 102 105 109 112 112 111 112 112 111
241 176 229 220 349 15 35 37 39 46 63 74 78 68 60 62 60 53 27 124 86 80 85 91 93 92 93 95 95 98 101 103 105 107 108 108 111 115 115 117 116 119 121
223 213 211 224 239 273 69 58 62 65 62 63 75 93 92 106 99 53 12 77 88 92 93 94 94 96 98 99 100 105 109 110 114 122 117 114 117 123 124 127 120 108 127
223 190 241 232 223 216 206 205 143 106 75 61 59 55 83 99 78 75 70 73 88 99 103 104 101 99 102 107 114 125 131 131 134 133 128 129 126 129 134 137 139 145 137
228 204 204 233 230 225 221 224 209 206 209 113 71 59 355 25 67 75 80 88 94 105 115 119 123 129 125 130 142 149 152 148 149 150 148 149 147 142 142 145 149 148 141
233 228 223 228 226 225 224 223 222 222 222 222 202 166 194 239 194 144 136 144 139 138 141 159 164 157 162 176 183 181 176 170 169 171 167 162 163 165 164 163 164 163 162
235 232 228 227 228 216 223 228 226 228 227 224 220 215 210 220 219 215 199 184 181 183 183 192 194 186 187 193 200 212 206 188 182 184 185 180 183 182 183 177 175 178 178
233 235 234 230 228 228 228 229 228 229 231 230 227 225 223 221 223 220 216 206 202 200 199 202 209 205 199 198 200 205 209 194 195 197 205 202 197 192 188 184 186 186 185
231 235 235 235 233 233 235 235 234 231 230 232 232 230 228 226 224 221 217 212 212 213 211 210 209 211 210 206 206 203 178 189 219 223 203 210 207 202 200 195 193 193 194
229 235 237 236 236 237 238 238 237 236 235 234 234 234 232 230 228 224 218 215 214 214 214 213 215 213 211 212 209 196 187 200 209 224 229 217 209 207 204 204 201 202 200
Height
1520 1515 1511 1508 1504 1501 1498 1496 1494 1493 1491 1490 1490 1490 1490 1491 1491 1493 1494 1496 1498 1501 1503 1506 1509 1512 1515 1518 1521 1523 1526 1529 1532 1534 1536 1538 1540 1542 1543 1544 1545 1546 1546
1522 1518 1514 1510 1506 1503 1500 1498 1496 1494 1493 1491 1491 1490 1490 1490 1490 1491 1491 1493 1495 1498 1500 1503 1505 1508 1511 1514 1517 1520 1522 1525 1528 1531 1533 1535 1537 1539 1540 1542 1543 1543 1544
1524 1520 1516 1512 1508 1505 1502 1500 1498 1496 1495 1493 1492 1491 1490 1490 1490 1490 1490 1492 1493 1496 1498 1500 1502 1505 1508 1511 1514 1517 1520 1522 1526 1528 1531 1533 1535 1537 1538 1540 1541 1541 1542
1527 1522 1518 1515 1511 1508 1505 1503 1501 1499 1497 1496 1494 1493 1492 1491 1490 1490 1490 1491 1493 1495 1497 1499 1502 1504 1507 1510 1513 1516 1518 1521 1524 1527 1529 1531 1533 1535 1537 1538 1540 1540 1540
1529 1525 1521 1518 1514 1511 1508 1505 1503 1502 1500 1498 1497 1496 1495 1494 1493 1492 1492 1493 1494 1496 1498 1500 1502 1504 1507 1509 1512 1515 1517 1520 1523 1525 1528 1530 1532 1534 1536 1537 1538 1539 1539
1532 1528 1524 1520 1517 1514 1511 1509 1506 1504 1502 1501 1500 1498 1497 1497 1496 1495 1494 1495 1496 1498 1499 1501 1502 1504 1507 1509 1512 1515 1518 1520 1522 1525 1527 1530 1532 1533 1534 1536 1537 1538 1539
1534 1530 1526 1523 1520 1517 1514 1512 1509 1507 1505 1504 1502 1501 1500 1500 1499 1498 1497 1498 1499 1500 1502 1503 1505 1507 1509 1511 1513 1516 1518 1521 1523 1526 1528 1530 1531 1532 1534 1535 1536 1537 1538
1536 1532 1529 1526 1523 1520 1517 1514 1512 1510 1508 1506 1505 1504 1503 1502 1502 1501 1501 1501 1502 1503 1505 1506 1508 1510 1512 1514 1516 1518 1520 1522 1524 1527 1529 1530 1531 1532 1534 1535 1535 1536 1537
1538 1535 1532 1529 1526 1523 1520 1517 1515 1513 1511 1510 1508 1507 1506 1506 1505 1505 1505 1505 1506 1507 1508 1510 1512 1513 1515 1517 1519 1520 1522 1524 1526 1527 1529 1530 1531 1532 1533 1534 1535 1536 1537
1540 1537 1534 1532 1529 1526 1523 1521 1519 1517 1515 1514 1512 1511 1510 1509 1509 1508 1508 1509 1509 1510 1511 1513 1514 1516 1518 1520 1522 1523 1524 1526 1528 1529 1530 1531 1532 1533 1533 1534 1535 1537 1537
1542 1540 1537 1534 1532 1529 1527 1524 1522 1520 1519 1517 1516 1514 1513 1512 1512 1512 1512 1512 1512 1513 1514 1516 1517 1519 1520 1522 1523 1525 1526 1528 1529 1530 1531 1532 1533 1533 1534 1534 1535 1536 1537
1544 1542 1539 1537 1535 1532 1530 1528 1526 1524 1522 1520 1519 1518 1517 1516 1515 1515 1515 1515 1516 1516 1517 1518 1520 1521 1522 1523 1525 1526 1527 1529 1530 1531 1532 1533 1534 1534 1535 1535 1535 1535 1536
1546 1544 1541 1539 1537 1535 1533 1531 1529 1527 1525 1524 1522 1521 1520 1519 1519 1518 1518 1518 1519 1519 1520 1521 1522 1523 1524 1525 1526 1528 1529 1530 1531 1532 1533 1534 1535 1535 1535 1536 1536 1536 1536
1548 1546 1544 1542 1540 1538 1536 1534 1532 1530 1528 1527 1526 1524 1524 1523 1522 1522 1522 1522 1522 1522 1523 1524 1525 1525 1526 1527 1528 1529 1530 1531 1532 1533 1534 1535 1535 1536 1536 1537 1537 1538 1538
1549 1547 1546 1544 1542 1540 1538 1536 1535 1533 1531 1530 1529 1528 1526 1525 1525 1524 1524 1524 1524 1525 1525 1526 1527 1528 1528 1529 1530 1531 1532 1533 1533 1534 1535 1536 1536 1537 1537 1537 1538 1539 1539
1550 1549 1547 1546 1544 1543 1541 1539 1537 1535 1534 1532 1531 1530 1529 1528 1527 1527 1527 1527 1527 1527 1528 1528 1529 1529 1530 1531 1532 1532 1533 1534 1534 1535 1536 1537 1537 1538 1538 1538 1538 1539 1539
1550 1549 1548 1547 1545 1544 1543 1542 1540 1539 1537 1535 1534 1533 1531 1530 1530 1529 1529 1529 1529 1529 1530 1530 1531 1531 1531 1532 1533 1534 1534 1535 1535 1536 1537 1537 1538 1539 1539 1539 1539 1540 1540
1549 1549 1548 1547 1546 1545 1544 1543 1541 1540 1540 1538 1536 1535 1534 1533 1532 1531 1531 1532 1532 1532 1532 1532 1532 1533 1533 1533 1534 1534 1535 1535 1536 1537 1537 1538 1538 1539 1539 1539 1540 1540 1540
1548 1548 1547 1547 1546 1545 1544 1543 1542 1541 1541 1540 1538 1537 1535 1535 1534 1533 1533 1533 1533 1533 1533 1533 1533 1534 1534 1534 1535 1535 1535 1536 1536 1537 1537 1537 1538 1539 1539 1539 1539 1539 1540
1547 1546 1546 1546 1546 1545 1545 1544 1543 1542 1542 1541 1540 1538 1537 1537 1536 1535 1535 1534 1534 1534 1534 1534 1534 1534 1535 1535 1535 1535 1535 1536 1536 1537 1537 1537 1538 1539 1539 1539 1540 1540 1540
1545 1545 1545 1545 1545 1545 1544 1544 1543 1543 1542 1541 1540 1539 1538 1537 1537 1536 1535 1535 1535 1534 1534 1534 1534 1534 1534 1534 1535 1535 1535 1536 1536 1536 1537 1537 1537 1538 1538 1539 1539 1539 1539
1543 1543 1543 1543 1543 1543 1543 1543 1542 1542 1541 1541 1540 1539 1538 1537 1537 1536 1536 1535 1534 1534 1534 1534 1534 1534 1534 1534 1534 1534 1534 1535 1535 1535 1536 1536 1536 1537 1537 1538 1538 1539 1539
1540 1540 1540 1541 1541 1541 1540 1541 1541 1541 1540 1540 1539 1539 1538 1537 1537 1536 1535 1535 1534 1533 1533 1533 1533 1533 1532 1532 1532 1532 1533 1533 1533 1534 1534 1535 1535 1536 1536 1537 1537 1538 1538
1537 1537 1537 1538 1538 1538 1538 1539 1539 1538 1538 1538 1538 1537 1537 1536 1535 1535 1534 1534 1533 1532 1532 1532 1531 1531 1531 1531 1531 1531 1531 1531 1531 1531 1532 1533 1534 1534 1535 1535 1536 1536 1537
1533 1533 1534 1534 1534 1535 1535 1535 1536 1536 1536 1536 1535 1535 1535 1534 1533 1533 1532 1532 1531 1531 1530 1530 1530 1529 1529 1529 1529 1529 1529 1529 1529 1529 1530 1531 1532 1532 1533 1533 1534 1534 1535
1529 1529 1530 1530 1530 1531 1531 1532 1532 1532 1532 1532 1532 1532 1532 1531 1531 1530 1530 1529 1529 1529 1528 1528 1527 1527 1527 1527 1527 1527 1527 1527 1527 1527 1528 1529 1529 1530 1531 1532 1532 1532 1533